Ciudad Obregon, Mexico

6:06 PM MST on March 26, 2017 (GMT -0700)
Ciudad Obregon International

Weather History for MMCN - October, 2012

Change the Weather History Date:

Monday, October 22, 2012

  Actual Average Record
Temperature  
Mean Temperature 78 °F -  
Max Temperature 96 °F 89 °F 100 °F (1999)
Min Temperature 59 °F 66 °F 56 °F (2013)
Cooling Degree Days 12    
Growing Degree Days 28 (Base 50)    
Moisture  
Dew Point 51 °F    
Average Humidity 39    
Maximum Humidity 73    
Minimum Humidity 10    
Precipitation  
Precipitation 0.00 in - - ()
Sea Level Pressure  
Sea Level Pressure 29.81 in    
Wind  
Wind Speed 4 mph ()    
Max Wind Speed 18 mph    
Max Gust Speed -    
Visibility 11.1 miles    
Events      
Averages and records for this station are not official NWS values.
T = Trace of Precipitation, MM = Missing Value Source: Averaged Metar Reports

Daily Weather History Graph

Daily Weather History Graph

Search for Another Location

Airport or City:

Trip Planner

Search our weather history database for the weather conditions in past years. The results will help you decide how hot, cold, wet, or windy it might be!

Date:

Astronomy

Oct. 22, 2012 Rise Set
Actual Time 6:23 AM MST 5:43 PM MST
Civil Twilight 5:59 AM MST 6:07 PM MST
Nautical Twilight 5:32 AM MST 6:34 PM MST
Astronomical Twilight 5:05 AM MST 7:01 PM MST
Moon 1:20 PM MST (10/22) No Moon Set
Length of Visible Light 12h 07m
Length of Day
11h 19m
First Quarter, 57% of the Moon is Illuminated
Oct 22
First Quarter
Oct 29
Full
Nov 6
Last Quarter
Nov 13
New
Nov 20
First Quarter

Hourly Weather History & Observations

Time (MST) Temp. Heat Index Dew Point Humidity Pressure Visibility Wind Dir Wind Speed Gust Speed Precip Events Conditions
3:53 AM 62.6 °F - 50.0 °F 63% 29.79 in 10.0 mi North 3.5 mph - N/A   Clear
4:40 AM 60.8 °F - 50.0 °F 68% 29.80 in 10.0 mi NNE 3.5 mph - N/A   Clear
5:41 AM 59.0 °F - 48.2 °F 67% 29.81 in 10.0 mi Calm Calm - N/A   Clear
6:44 AM 59.0 °F - 50.0 °F 72% 29.83 in 12.0 mi Calm Calm - N/A   Clear
7:42 AM 69.8 °F - 50.0 °F 49% 29.84 in 10.0 mi Calm Calm - N/A   Clear
7:50 AM 67 °F - 54 °F 53% 29.88 in 12 mi North 4.5 mph - -  
8:41 AM 78.8 °F - 51.8 °F 39% 29.86 in 10.0 mi Calm Calm - N/A   Clear
9:40 AM 86.0 °F - 48.2 °F 27% 29.86 in 10.0 mi Calm Calm - N/A   Clear
10:40 AM 89.6 °F - 48.2 °F 24% 29.85 in 10.0 mi ESE 5.8 mph - N/A   Clear
10:50 AM 92 °F - 52 °F 16% 29.88 in 19 mi SE 6.7 mph - -  
11:45 AM 91.4 °F - 41.0 °F 17% 29.83 in 10.0 mi Calm Calm - N/A   Clear
12:41 PM 93.2 °F - 42.8 °F 17% 29.80 in 10.0 mi SSW 6.9 mph - N/A   Clear
1:42 PM 93.2 °F - 39.2 °F 15% 29.77 in 10.0 mi South 3.5 mph - N/A   Clear
1:50 PM 96 °F - 46 °F 10% 29.80 in 19 mi WSW 11.2 mph - -  
2:41 PM 95.0 °F - 39.2 °F 14% 29.76 in 10.0 mi West 4.6 mph - N/A   Clear
3:46 PM 93.2 °F - 44.6 °F 19% 29.75 in 10.0 mi West 9.2 mph - N/A   Clear
4:41 PM 89.6 °F 87.7 °F 55.4 °F 31% 29.76 in 10.0 mi West 11.5 mph - N/A   Clear
4:50 PM 88 °F - 61 °F 30% 29.79 in 12 mi WSW 17.9 mph - -  
5:43 PM 82.4 °F 82.5 °F 59.0 °F 45% 29.78 in 10.0 mi WSW 5.8 mph - N/A   Partly Cloudy
6:43 PM 78.8 °F - 60.8 °F 54% 29.80 in 10.0 mi West 6.9 mph - N/A   Clear
7:41 PM 75.2 °F - 62.6 °F 65% 29.81 in 10.0 mi WNW 5.8 mph - N/A   Clear
8:42 PM 71.6 °F - 62.6 °F 73% 29.82 in 10.0 mi NW 5.8 mph - N/A   Partly Cloudy